• In Russia
  • List of Countries
  • For 7 days
  • Water Temperature
  • Satellite Maps
  • Weather Map
  • Weather Widgets
  • user-avatar
    Login

    Hourly Weather Innsbruck

    Today, 21 July, Friday

    Time Temperature Precipitation Wind Pressure Humidity
    00:00 +9°C° 0.5 mm 1 mps 598 mmHg 93%
    01:00 +9°C° 0 mm 1 mps 597 mmHg 89%
    02:00 +8°C° 0 mm 1 mps 597 mmHg 89%
    03:00 +8°C° 0 mm 1 mps 597 mmHg 89%
    04:00 +7°C° 0 mm 1 mps 596 mmHg 88%
    05:00 +9°C° 0 mm 1 mps 597 mmHg 85%
    06:00 +10°C° 0 mm 1 mps 598 mmHg 81%
    07:00 +12°C° 0 mm 1 mps 599 mmHg 74%
    08:00 +14°C° 0 mm 2 mps 599 mmHg 65%
    09:00 +16°C° 0 mm 2 mps 600 mmHg 57%
    10:00 +18°C° 0 mm 2 mps 601 mmHg 49%
    11:00 +18°C° 0.3 mm 2 mps 601 mmHg 48%
    12:00 +19°C° 0.3 mm 2 mps 601 mmHg 46%
    13:00 +20°C° 0.3 mm 3 mps 601 mmHg 45%
    14:00 +19°C° 1 mm 2 mps 601 mmHg 50%
    15:00 +18°C° 1 mm 2 mps 600 mmHg 56%
    16:00 +18°C° 1 mm 2 mps 600 mmHg 61%
    17:00 +16°C° 2 mm 2 mps 599 mmHg 68%
    18:00 +15°C° 2 mm 2 mps 599 mmHg 75%
    19:00 +14°C° 2 mm 1 mps 598 mmHg 82%
    20:00 +13°C° 1 mm 1 mps 598 mmHg 83%
    21:00 +12°C° 1 mm 2 mps 598 mmHg 85%
    22:00 +10°C° 1 mm 2 mps 597 mmHg 86%
    23:00 +9°C° 0.1 mm 2 mps 597 mmHg 86%

    Tomorrow, 22 July, Saturday

    Time Temperature Precipitation Wind Pressure Humidity
    00:00 +9°C° 0.1 mm 2 mps 597 mmHg 87%
    01:00 +8°C° 0.1 mm 2 mps 597 mmHg 87%
    02:00 +8°C° 0.2 mm 2 mps 597 mmHg 87%
    03:00 +8°C° 0.2 mm 2 mps 597 mmHg 87%
    04:00 +8°C° 0.2 mm 2 mps 597 mmHg 87%
    05:00 +10°C° 0.1 mm 1 mps 597 mmHg 84%
    06:00 +11°C° 0.1 mm 1 mps 598 mmHg 80%
    07:00 +12°C° 0.1 mm 1 mps 598 mmHg 77%
    08:00 +14°C° 0 mm 1 mps 599 mmHg 69%
    09:00 +16°C° 0 mm 1 mps 600 mmHg 61%
    10:00 +19°C° 0 mm 1 mps 601 mmHg 53%
    11:00 +19°C° 0.3 mm 1 mps 601 mmHg 53%
    12:00 +20°C° 0.3 mm 1 mps 601 mmHg 53%
    13:00 +20°C° 0.3 mm 1 mps 601 mmHg 54%
    14:00 +20°C° 1.1 mm 1 mps 601 mmHg 58%
    15:00 +19°C° 1.1 mm 1 mps 601 mmHg 62%
    16:00 +19°C° 1.1 mm 1 mps 601 mmHg 66%
    17:00 +16°C° 1.6 mm 1 mps 600 mmHg 73%
    18:00 +15°C° 1.6 mm 1 mps 600 mmHg 79%
    19:00 +14°C° 1.6 mm 1 mps 599 mmHg 86%
    20:00 +13°C° 1.3 mm 1 mps 599 mmHg 89%
    21:00 +12°C° 1.3 mm 1 mps 599 mmHg 91%
    22:00 +11°C° 1.3 mm 1 mps 599 mmHg 94%
    23:00 +10°C° 0.7 mm 1 mps 599 mmHg 94%

    Day after tomorrow, 23 July, Sunday

    Time Temperature Precipitation Wind Pressure Humidity
    00:00 +10°C° 0.7 mm 1 mps 598 mmHg 95%
    01:00 +10°C° 0.7 mm 1 mps 598 mmHg 95%
    02:00 +10°C° 0.4 mm 1 mps 598 mmHg 95%
    03:00 +9°C° 0.4 mm 1 mps 598 mmHg 94%
    04:00 +9°C° 0.4 mm 1 mps 598 mmHg 94%
    05:00 +10°C° 0.1 mm 1 mps 598 mmHg 91%
    06:00 +11°C° 0.1 mm 1 mps 599 mmHg 89%
    07:00 +12°C° 0.1 mm 1 mps 600 mmHg 86%
    08:00 +13°C° 0.2 mm 1 mps 600 mmHg 80%
    09:00 +15°C° 0.2 mm 1 mps 600 mmHg 74%
    10:00 +16°C° 0.2 mm 1 mps 601 mmHg 68%
    11:00 +15°C° 0.4 mm 1 mps 601 mmHg 70%
    12:00 +15°C° 0.4 mm 1 mps 600 mmHg 73%
    13:00 +15°C° 0.4 mm 1 mps 600 mmHg 75%
    14:00 +14°C° 0.9 mm 2 mps 600 mmHg 78%
    15:00 +14°C° 0.9 mm 2 mps 600 mmHg 82%
    16:00 +13°C° 0.9 mm 2 mps 599 mmHg 85%
    17:00 +13°C° 1.7 mm 2 mps 599 mmHg 88%
    18:00 +12°C° 1.7 mm 1 mps 599 mmHg 92%
    19:00 +11°C° 1.7 mm 1 mps 598 mmHg 95%
    20:00 +11°C° 0.9 mm 1 mps 598 mmHg 96%
    21:00 +10°C° 0.9 mm 1 mps 598 mmHg 96%
    22:00 +10°C° 0.9 mm 1 mps 598 mmHg 97%
    23:00 +10°C° 0.4 mm 1 mps 598 mmHg 97%

    24 July, Monday

    Time Temperature Precipitation Wind Pressure Humidity
    00:00 +9°C° 0.4 mm 1 mps 598 mmHg 97%
    01:00 +9°C° 0.4 mm 1 mps 597 mmHg 97%
    02:00 +9°C° 0.4 mm 1 mps 597 mmHg 97%
    03:00 +9°C° 0.4 mm 1 mps 596 mmHg 97%
    04:00 +9°C° 0.4 mm 1 mps 596 mmHg 97%
    05:00 +9°C° 0.5 mm 1 mps 596 mmHg 96%
    06:00 +9°C° 0.5 mm 1 mps 595 mmHg 95%
    07:00 +10°C° 0.5 mm 1 mps 595 mmHg 94%
    08:00 +10°C° 1.2 mm 1 mps 595 mmHg 91%
    09:00 +11°C° 1.2 mm 1 mps 595 mmHg 89%
    10:00 +11°C° 1.2 mm 1 mps 595 mmHg 87%
    11:00 +11°C° 1.9 mm 1 mps 594 mmHg 87%
    12:00 +11°C° 1.9 mm 1 mps 594 mmHg 88%
    13:00 +10°C° 1.9 mm 1 mps 593 mmHg 89%
    14:00 +9°C° 3.2 mm 1 mps 593 mmHg 91%
    15:00 +8°C° 3.2 mm 2 mps 593 mmHg 93%
    16:00 +7°C° 3.2 mm 2 mps 592 mmHg 96%
    17:00 +6°C° 2.5 mm 2 mps 592 mmHg 96%
    18:00 +6°C° 2.5 mm 2 mps 592 mmHg 96%
    19:00 +5°C° 2.5 mm 2 mps 592 mmHg 96%
    20:00 +5°C° 0.5 mm 2 mps 592 mmHg 96%
    21:00 +4°C° 0.5 mm 2 mps 592 mmHg 96%
    22:00 +4°C° 0.5 mm 2 mps 592 mmHg 95%
    23:00 +4°C° 0.2 mm 2 mps 592 mmHg 95%

    25 July, Tuesday

    Time Temperature Precipitation Wind Pressure Humidity
    00:00 +4°C° 0.2 mm 2 mps 591 mmHg 95%
    01:00 +4°C° 0.2 mm 2 mps 591 mmHg 94%
    02:00 +3°C° 0.2 mm 2 mps 591 mmHg 94%
    03:00 +3°C° 0.2 mm 2 mps 591 mmHg 95%
    04:00 +3°C° 0.2 mm 2 mps 590 mmHg 95%
    05:00 +3°C° 0.2 mm 2 mps 591 mmHg 94%
    06:00 +4°C° 0.2 mm 2 mps 591 mmHg 93%
    07:00 +4°C° 0.2 mm 2 mps 591 mmHg 92%
    08:00 +5°C° 0.2 mm 2 mps 592 mmHg 87%
    09:00 +6°C° 0.2 mm 2 mps 592 mmHg 82%
    10:00 +7°C° 0.2 mm 2 mps 592 mmHg 77%
    11:00 +8°C° 0.3 mm 2 mps 593 mmHg 75%
    12:00 +9°C° 0.3 mm 2 mps 593 mmHg 72%
    13:00 +9°C° 0.3 mm 2 mps 593 mmHg 70%
    14:00 +9°C° 0.7 mm 2 mps 593 mmHg 72%
    15:00 +9°C° 0.7 mm 2 mps 593 mmHg 75%
    16:00 +8°C° 0.7 mm 3 mps 592 mmHg 78%
    17:00 +7°C° 0.8 mm 2 mps 592 mmHg 82%
    18:00 +6°C° 0.8 mm 2 mps 592 mmHg 87%
    19:00 +6°C° 0.8 mm 2 mps 592 mmHg 91%
    20:00 +5°C° 0.2 mm 2 mps 592 mmHg 92%
    21:00 +4°C° 0.2 mm 2 mps 592 mmHg 94%
    22:00 +4°C° 0.2 mm 2 mps 592 mmHg 95%
    23:00 +3°C° 0 mm 2 mps 592 mmHg 95%

    26 July, Wednesday

    Time Temperature Precipitation Wind Pressure Humidity
    00:00 +3°C° 0 mm 2 mps 592 mmHg 96%
    01:00 +2°C° 0 mm 2 mps 592 mmHg 96%
    02:00 +2°C° 0 mm 2 mps 592 mmHg 95%
    03:00 +2°C° 0 mm 2 mps 592 mmHg 95%
    04:00 +2°C° 0 mm 2 mps 592 mmHg 95%
    05:00 +3°C° 0.2 mm 2 mps 592 mmHg 93%
    06:00 +3°C° 0.2 mm 2 mps 592 mmHg 91%
    07:00 +4°C° 0.2 mm 2 mps 593 mmHg 90%
    08:00 +5°C° 0.7 mm 2 mps 593 mmHg 88%
    09:00 +5°C° 0.7 mm 2 mps 594 mmHg 86%
    10:00 +6°C° 0.7 mm 2 mps 594 mmHg 84%
    11:00 +6°C° 0.9 mm 2 mps 594 mmHg 84%
    12:00 +7°C° 0.9 mm 2 mps 594 mmHg 84%
    13:00 +7°C° 0.9 mm 2 mps 595 mmHg 84%
    14:00 +7°C° 0.6 mm 2 mps 595 mmHg 83%
    15:00 +7°C° 0.6 mm 2 mps 595 mmHg 82%
    16:00 +7°C° 0.6 mm 2 mps 595 mmHg 81%
    17:00 +7°C° 1 mm 2 mps 595 mmHg 84%
    18:00 +6°C° 1 mm 2 mps 595 mmHg 87%
    19:00 +6°C° 1 mm 2 mps 595 mmHg 90%
    20:00 +5°C° 1.1 mm 2 mps 595 mmHg 91%
    21:00 +5°C° 1.1 mm 2 mps 595 mmHg 93%
    22:00 +4°C° 1.1 mm 2 mps 596 mmHg 94%
    23:00 +4°C° 0.2 mm 2 mps 596 mmHg 94%
    Show more